Погода в Криуше

Россия / Рязанская область     54°56′48″N   39°57′53″E
темп.,
°C
ветер,
м/с
пор.,
м/с
влажн.,
%
обл.,
%
осадки,
мм/ч
давл.,
гПа
погр.,
м
6 мая, чт
чт600:00+11юз41479100 0.1 1010560
03:00+8ююз31288100 0.1 1010310
06:00+9ю41282100 0.0 1009327
09:00+13ю51272100 0.1 1010557
12:00+15ю61362100 0.0 10091457
15:00+16ю71559100 0.4 10081856
18:00+13юз71569100 0.2 10081772
21:00+10юз51387100 0.9 10091258
7 мая, пт
пт700:00+9зюз3792100 1.8 1009568
03:00+7юз3894100 2.1 1011318
06:00+7зюз3893100 0.0 1012454
09:00+10зюз47615 0.0 10131163
12:00+13зюз57435 0.0 10141989
15:00+15зюз47375 0.0 10152371
18:00+13ююз3647100 0.0 1015566
21:00+8ююв3869100 0.0 1016146
8 мая, сб
сб800:00+7ююв31171100 0.0 1015267
03:00+8ююв4136587 0.0 1014408
06:00+8ююв51466100 0.0 1012493
09:00+11ююв61473100 0.1 1010898
12:00+10ююв71689100 3.3 1008856
15:00+12ю61293100 4.8 1006972
18:00+11ю51295100 2.6 1004737
21:00+9зюз41194100 6.1 1006775
9 мая, вс
вс900:00+6з51089100 0.6 1009745
03:00+5зюз41086100 0.6 1012907
06:00+5з3884100 0.0 1013756
09:00+7зсз4667100 0.0 10161107
12:00+10зсз4556100 0.0 10181351
15:00+11сз4551100 0.0 10191700
18:00+10с256099 0.0 1021801
21:00+6ссв227919 0.0 102313
10 мая, пн
пн1000:00+4ссв22874 0.0 102513
03:00+3с25935 0.0 102782
06:00+5с268448 0.0 1028154
09:00+11ссв35555 0.0 1029891
12:00+14ссв34409 0.0 10281542
15:00+16св333752 0.0 10281645
18:00+15св24495 0.0 1028366
21:00+8всв22705 0.0 102911